EHI
0 0 1 0 0 0 0 0 0 0 0 0 0 0 0 0 0 1 2 3 3 3 3 2 1 0 0 0 0 0 0 0 0 0 0 0 0 0 0 0 0 0 0
1 1 2 1 0 0 0 0 0 0 0 0 0 0 0 0 0 0 1 2 3 3 4 3 3 2 1 0 0 0 0 0 0 0 0 0 0 0 0 0 0 0 0
2 3 3 2 1 0 0 0 0 0 0 0 0 0 0 0 0 0 0 1 2 3 5 6 5 5 3 2 0 0 0 0 0 0 0 0 0 0 0 0 0 0 0
3 3 3 3 2 1 0 0 0 0 0 0 0 0 0 0 0 0 0 1 1 3 6 8 7 7 5 3 2 1 1 0 0 0 0 0 0 0 0 0 0 0 0
4 3 4 4 3 2 1 0 1 1 0 0 0 0 0 0 0 0 0 0 1 2 5 8 8 8 6 5 4 4 3 2 2 1 0 0 0 0 0 0 0 0 0
5 5 5 6 6 4 2 1 2 3 1 0 0 0 0 0 0 0 0 0 1 2 3 4 7 7 7 6 6 6 4 3 4 3 1 1 1 0 0 0 0 0 0
6 7 8 9 9 8 5 3 3 3 2 1 1 0 0 0 0 0 0 0 0 0 0 2 5 6 7 7 5 4 3 3 4 4 3 3 2 1 0 0 0 0 0
8 10 11 11 12 12 9 7 4 3 3 2 2 1 0 0 0 0 0 1 1 0 0 1 3 6 9 9 5 2 2 1 2 4 4 4 3 2 1 0 0 0 0
11 11 11 12 13 14 12 9 5 3 3 3 3 2 1 1 1 1 1 1 1 1 1 0 2 5 9 9 5 2 1 1 0 2 3 3 3 3 1 0 0 1 1
9 9 10 12 14 15 12 8 4 3 3 3 3 3 2 2 3 3 2 2 2 1 1 1 1 4 6 8 6 2 0 0 0 0 1 2 2 1 1 0 1 1 0
9 7 9 13 15 13 9 5 5 5 4 5 4 4 4 4 4 4 3 3 3 1 1 1 2 3 4 5 5 2 0 0 0 0 0 1 2 1 0 0 1 1 1
10 9 10 14 16 13 7 5 6 7 8 9 8 5 3 3 4 5 5 4 3 2 2 2 2 3 4 4 4 2 0 0 0 0 0 1 2 1 0 0 1 2 3
15 14 14 15 16 13 7 5 6 8 9 11 10 6 3 3 4 6 6 5 4 4 4 4 3 4 4 4 4 2 0 0 0 0 0 0 1 1 0 0 0 1 2
22 22 20 17 14 10 6 6 7 7 8 9 8 6 5 5 5 6 5 5 4 4 4 5 6 6 6 4 2 1 0 0 0 0 0 0 0 0 0 0 0 0 1
25 24 22 17 12 7 5 6 7 7 7 6 6 6 7 7 7 6 6 5 5 4 4 4 5 6 6 4 1 1 1 1 0 0 0 0 0 0 0 0 0 0 0
26 25 22 18 13 8 8 7 8 8 8 7 8 8 9 11 11 9 8 7 7 7 5 4 4 5 5 4 1 1 2 2 1 0 0 0 0 0 0 0 0 0 0
31 30 27 22 15 11 12 13 12 12 12 11 11 11 11 12 13 12 10 9 9 8 6 4 3 4 5 4 3 2 1 2 2 1 0 0 0 0 0 0 0 0 0
38 37 34 28 21 18 18 18 17 16 14 13 14 13 12 12 12 11 9 8 8 8 6 4 3 4 4 5 6 3 2 2 2 0 0 0 0 0 0 0 0 0 0
44 42 38 33 28 24 22 21 19 15 13 12 13 13 13 12 10 8 7 6 5 5 6 5 5 5 5 6 6 4 3 5 3 0 0 0 0 0 0 0 0 0 0
48 45 40 37 32 27 23 21 17 14 11 11 12 12 11 10 8 6 6 6 5 4 6 8 8 7 6 6 6 5 4 6 5 2 1 1 1 1 0 0 0 0 0
50 46 41 36 30 21 17 16 14 12 12 11 10 9 8 7 5 3 4 5 5 5 6 9 9 8 7 7 7 5 3 5 6 4 3 3 2 1 0 0 0 0 0
51 47 40 34 25 14 8 8 8 10 11 10 8 6 5 4 2 1 1 1 2 3 5 8 9 9 8 8 7 4 3 3 4 4 4 3 2 1 0 0 0 0 0
53 48 40 33 23 11 5 3 4 6 8 7 5 4 3 3 3 2 1 1 1 2 4 6 9 9 8 7 5 4 3 2 2 3 3 2 1 0 0 0 0 0 0
53 47 39 31 22 12 5 2 2 4 6 6 6 5 4 4 4 3 2 2 3 3 2 4 6 6 4 3 3 3 4 3 2 2 2 1 0 0 0 0 0 0 0
47 41 35 29 22 13 6 2 3 6 9 10 9 6 4 3 3 2 3 3 3 2 1 1 2 2 1 0 1 2 3 2 1 1 2 1 0 0 1 0 0 0 0
41 37 33 30 23 14 6 1 3 8 12 14 12 6 2 1 1 1 2 3 2 1 0 0 0 0 0 0 0 1 2 1 0 1 2 1 0 0 1 0 0 0 0
Wind_Speed
2 2 2 1 2 2 3 3 3 3 3 4 4 4 4 4 3 3 4 9 9 9 10 10 11 11 11 11 11 11 11 11 11 10 10 10 10 9 9 8 8 8 8
2 2 2 2 2 2 2 2 3 3 3 3 4 4 5 5 5 5 4 7 11 10 10 11 11 11 11 12 12 12 12 12 12 11 11 11 10 10 10 9 9 9 8
3 2 2 3 2 2 3 3 3 3 4 4 5 5 5 5 5 6 6 5 7 12 12 12 12 12 13 13 13 13 13 13 12 12 12 12 11 11 10 10 10 10 9
4 3 3 2 2 2 3 3 3 3 3 4 4 4 4 4 6 6 6 6 5 5 11 14 12 12 13 14 14 14 14 14 13 13 13 13 13 12 12 12 11 11 10
5 4 3 2 3 3 3 3 2 3 3 3 4 4 5 5 5 6 6 7 6 6 5 9 13 12 13 14 14 15 15 15 15 14 15 15 14 14 13 13 12 12 12
5 4 4 4 4 3 3 3 2 3 3 3 5 3 4 5 5 5 6 6 6 8 8 7 8 11 15 14 14 15 16 16 16 16 16 16 16 15 14 14 14 13 13
5 5 4 4 4 4 4 4 4 4 4 3 3 4 5 6 5 5 6 5 6 7 7 7 6 6 7 15 15 15 15 16 15 16 16 16 16 15 15 15 15 14 14
5 5 5 5 5 4 5 5 4 4 3 3 3 3 4 4 5 5 4 5 6 6 7 7 7 6 7 5 8 16 16 16 16 15 15 15 15 14 14 15 15 15 15
5 5 5 5 4 5 4 5 5 5 4 4 4 4 4 3 2 3 4 4 5 4 5 5 7 7 8 7 6 11 13 13 14 15 15 14 15 15 15 16 16 15 15
5 5 5 5 5 4 3 5 4 4 5 4 3 4 5 4 4 3 4 4 4 5 5 5 6 6 7 7 6 5 8 10 12 13 14 14 14 14 16 16 17 16 16
5 5 5 4 5 4 4 4 3 5 4 5 4 3 4 4 6 5 5 4 4 4 4 5 5 5 6 6 5 5 7 9 10 11 12 12 13 13 14 15 17 17 17
4 5 5 4 5 4 4 4 4 5 4 5 5 4 4 4 4 5 6 6 5 4 4 4 5 5 5 5 5 2 4 6 8 9 10 10 11 12 13 14 15 15 16
4 4 4 4 4 4 4 4 4 5 5 5 5 4 4 5 5 5 6 6 6 4 4 5 4 4 4 3 2 2 4 5 6 7 7 8 9 9 10 11 12 13 14
3 3 4 5 4 4 4 3 4 4 4 5 6 5 5 5 5 5 5 6 6 5 4 4 3 3 3 3 1 3 4 5 5 5 6 6 7 7 8 8 8 9 9
4 5 5 5 4 4 3 3 3 3 3 4 4 4 4 3 4 4 5 5 6 6 5 3 3 3 2 3 1 4 4 3 4 4 5 5 6 6 6 6 7 7 6
5 5 5 5 4 4 4 3 3 2 3 3 3 3 4 3 3 3 4 4 5 6 5 3 3 3 3 4 2 5 4 3 4 4 4 4 4 5 5 5 5 5 5
6 6 5 5 4 4 4 3 3 3 3 2 3 3 3 4 3 3 3 4 4 4 5 5 3 3 3 5 3 4 3 3 2 4 3 3 3 3 4 4 4 4 4
7 6 6 5 5 4 4 4 3 3 3 3 3 3 3 3 3 3 3 4 4 4 5 6 4 3 3 3 3 4 3 2 2 4 4 3 3 3 3 2 2 2 2
7 6 6 6 5 4 4 4 3 3 3 3 3 3 3 3 3 3 4 4 4 4 4 5 4 3 2 2 3 3 2 2 2 3 5 5 4 4 4 3 2 2 1
7 7 6 6 5 5 4 4 4 4 3 2 2 2 2 3 3 3 3 4 4 5 4 4 4 3 2 2 3 3 2 2 2 1 0 2 5 6 6 5 3 2 1
7 6 6 5 5 4 4 4 4 4 3 2 2 2 1 2 3 4 4 4 4 4 4 3 3 3 2 2 3 3 3 2 1 1 1 1 2 3 4 5 4 2 1
6 6 6 5 5 3 3 2 3 3 3 3 2 2 1 2 1 0 2 4 5 5 5 3 3 3 3 3 3 3 3 2 1 1 2 1 1 0 1 2 4 3 2
6 6 5 5 5 3 4 4 3 3 3 2 2 2 2 0 1 1 2 3 2 1 3 5 4 4 4 3 4 3 2 3 3 2 2 1 1 1 0 3 6 4 3
6 6 6 6 5 4 5 4 4 4 3 2 2 2 2 1 1 2 3 2 1 0 1 2 3 3 4 4 4 4 3 2 1 0 2 2 1 2 1 2 7 6 4
6 6 6 6 6 5 5 5 5 4 3 3 2 1 1 1 3 4 3 2 2 1 1 0 2 3 3 3 4 3 2 2 1 0 1 3 2 2 2 1 4 6 5
6 6 5 5 5 5 5 5 5 4 4 3 3 3 3 1 1 3 3 3 3 2 1 1 2 2 3 1 2 3 3 3 2 1 1 2 2 2 2 1 1 2 3
Wind_Direction
182 163 156 164 184 173 175 186 200 189 198 202 211 211 220 229 224 222 171 178 198 211 216 215 214 212 211 211 211 213 215 214 212 214 216 215 214 214 214 217 218 214 211
188 185 177 182 196 198 200 202 192 197 218 221 222 222 231 227 220 229 226 187 198 210 218 219 218 217 217 218 216 217 219 221 220 218 217 219 219 219 221 221 220 216 214
201 203 191 197 196 194 194 215 216 220 220 217 221 228 231 231 227 227 237 231 202 200 211 218 221 220 221 222 220 221 223 224 224 222 220 219 217 220 222 224 222 220 220
214 219 215 212 194 212 208 211 221 226 234 237 228 236 235 224 230 230 233 232 236 220 201 209 216 221 224 226 225 224 225 225 225 225 222 219 219 221 222 223 224 223 224
216 220 224 220 215 217 225 235 209 234 234 248 243 227 237 232 230 233 234 236 231 236 228 191 204 216 223 227 228 226 226 225 224 225 224 224 224 224 223 223 224 225 226
219 223 222 217 226 223 230 237 241 239 252 252 266 258 247 243 233 238 240 234 228 230 234 229 210 211 216 225 228 228 228 227 224 223 224 225 226 226 223 223 225 228 228
223 223 236 214 227 227 234 235 237 233 240 244 259 254 241 235 238 233 237 244 236 235 238 234 235 238 208 211 222 228 230 231 229 226 225 225 227 227 224 224 224 226 227
230 226 226 227 223 227 227 233 233 249 247 226 249 264 253 221 216 226 224 227 240 239 238 235 234 233 249 232 206 213 225 232 234 231 227 225 225 226 225 225 224 225 225
231 241 234 237 232 234 224 227 229 239 252 244 238 259 270 269 275 215 223 230 233 240 244 241 237 235 236 239 233 203 213 224 232 235 233 229 226 225 225 226 226 225 225
228 230 231 233 236 241 234 236 226 239 251 254 242 243 261 290 280 269 229 221 228 239 253 257 254 241 237 239 228 224 206 218 228 236 239 236 232 227 226 226 228 227 227
218 226 225 228 231 241 241 250 245 247 244 250 255 253 249 243 247 259 268 259 246 243 245 248 255 257 251 245 244 227 199 211 223 233 241 243 242 237 232 231 231 231 231
214 218 221 220 230 242 242 245 243 239 247 256 261 259 257 255 254 256 266 267 264 261 257 263 261 255 251 250 242 200 193 210 221 229 237 243 246 246 241 237 235 236 238
210 205 219 216 228 232 243 247 243 253 249 252 253 256 258 261 268 266 269 276 278 270 256 255 256 262 258 254 242 177 200 212 223 229 235 240 241 244 243 242 240 240 240
222 191 204 215 223 231 237 237 248 246 250 257 260 259 260 259 264 264 268 276 278 271 257 259 263 257 269 263 280 231 229 197 215 226 232 235 236 238 237 238 240 240 238
214 199 206 213 220 222 230 235 246 252 254 257 267 260 263 271 269 271 269 265 272 280 281 260 260 257 254 260 251 257 257 197 205 221 226 232 238 235 229 228 231 233 237
215 206 208 211 210 209 209 220 230 223 241 251 268 285 278 276 276 274 277 274 266 272 281 293 279 282 286 279 240 268 260 203 201 210 221 227 233 236 228 224 224 225 229
204 206 209 210 210 213 211 211 235 230 242 254 265 267 274 288 286 282 278 277 276 275 275 286 291 292 284 280 284 282 269 254 203 176 197 212 222 222 216 216 217 221 229
204 202 203 204 207 208 210 217 231 237 246 254 264 272 279 278 276 288 290 288 288 284 277 283 286 280 277 277 285 283 282 266 257 143 157 171 180 177 175 178 191 212 228
198 196 197 201 203 203 206 217 227 234 243 251 259 267 279 288 286 290 288 290 287 281 281 278 283 296 285 291 287 273 272 278 267 157 157 161 159 156 150 149 151 154 173
196 196 195 195 196 200 204 212 216 222 230 235 250 260 272 285 288 287 278 283 290 289 283 278 284 287 292 300 287 289 278 258 266 270 120 170 163 161 150 146 137 131 135
199 193 193 193 196 199 206 207 211 208 208 220 233 253 286 17 6 330 318 313 302 291 289 290 295 299 312 318 307 293 290 278 245 295 272 222 185 178 159 153 140 118 122
194 190 190 185 189 195 125 143 233 204 202 214 224 241 214 182 153 234 337 336 333 309 307 301 295 300 307 307 310 295 299 295 287 345 293 288 283 222 143 108 104 116 128
180 183 184 186 185 165 145 165 215 219 210 219 222 242 262 106 234 244 203 212 227 307 314 306 307 310 312 318 310 304 308 307 316 344 298 287 319 297 227 110 131 142 145
180 184 185 187 183 167 155 168 193 204 202 199 212 237 262 275 356 318 274 251 251 277 302 282 308 314 328 326 304 282 277 267 255 225 295 278 263 270 254 150 151 163 172
187 187 187 188 186 164 155 168 194 192 190 193 194 178 247 203 42 331 277 265 262 242 154 20 343 327 328 322 311 291 282 266 275 209 331 298 287 274 253 205 157 171 184
188 184 181 182 182 167 155 168 205 208 194 190 176 158 99 48 52 315 270 265 264 274 283 220 218 227 238 214 246 285 298 291 301 295 85 293 298 289 264 218 177 180 190